Time,TemperatureF,DewpointF,PressureIn,WindDirection,WindDirectionDegrees,WindSpeedMPH,WindSpeedGustMPH,Humidity,HourlyPrecipIn,Conditions,Clouds,dailyrainin,SoftwareType,DateUTC
2013-06-29 00:01:00,64.2,59.6,29.65,ENE,68,0.0,0.0,85,0.00,,SKC,0.00,VWS V13.01,2013-06-29 04:01:00,
2013-06-29 00:02:00,64.2,59.6,29.65,ENE,68,0.0,0.0,85,0.00,,SKC,0.00,VWS V13.01,2013-06-29 04:02:00,
2013-06-29 00:07:00,64.2,59.6,29.65,ENE,68,0.0,0.0,85,0.00,,SKC,0.00,VWS V13.01,2013-06-29 04:07:00,
2013-06-29 00:12:00,64.0,59.4,29.65,ENE,68,0.0,0.0,85,0.00,,SKC,0.00,VWS V13.01,2013-06-29 04:12:00,
2013-06-29 00:17:00,64.0,59.4,29.65,ENE,68,0.0,0.0,85,0.02,,SKC,0.02,VWS V13.01,2013-06-29 04:17:00,
2013-06-29 00:22:00,64.0,59.4,29.65,ENE,68,0.0,0.0,85,0.02,,SKC,0.02,VWS V13.01,2013-06-29 04:22:00,
2013-06-29 00:27:00,63.6,59.3,29.64,ENE,68,0.0,0.0,86,0.02,,SKC,0.02,VWS V13.01,2013-06-29 04:27:00,
2013-06-29 00:32:00,63.6,59.3,29.64,ENE,68,0.0,0.0,86,0.02,,SKC,0.02,VWS V13.01,2013-06-29 04:32:00,
2013-06-29 00:37:00,63.6,59.3,29.65,ENE,68,0.0,0.0,86,0.02,,SKC,0.02,VWS V13.01,2013-06-29 04:37:00,
2013-06-29 00:42:00,63.6,59.3,29.65,ENE,68,0.0,0.0,86,0.02,,SKC,0.02,VWS V13.01,2013-06-29 04:42:00,
2013-06-29 00:47:00,63.6,59.3,29.65,ENE,68,0.0,0.0,86,0.02,,SKC,0.02,VWS V13.01,2013-06-29 04:47:00,
2013-06-29 00:52:00,63.8,59.5,29.64,ENE,68,0.0,0.0,86,0.02,,SKC,0.02,VWS V13.01,2013-06-29 04:52:00,
2013-06-29 00:57:00,63.8,59.5,29.64,ENE,68,0.0,0.0,86,0.02,,SKC,0.02,VWS V13.01,2013-06-29 04:57:00,
2013-06-29 01:02:00,64.0,59.7,29.64,ENE,68,0.0,0.0,86,0.02,,SKC,0.02,VWS V13.01,2013-06-29 05:02:00,
2013-06-29 01:07:00,63.8,59.5,29.64,ENE,68,0.0,0.0,86,0.02,,SKC,0.02,VWS V13.01,2013-06-29 05:07:00,
2013-06-29 01:12:00,63.8,59.5,29.64,ENE,68,0.0,0.0,86,0.00,,SKC,0.02,VWS V13.01,2013-06-29 05:12:00,
2013-06-29 01:17:00,63.6,59.3,29.64,ENE,68,0.0,0.0,86,0.00,,SKC,0.02,VWS V13.01,2013-06-29 05:17:00,
2013-06-29 01:22:00,63.6,59.3,29.63,ENE,68,0.0,0.0,86,0.00,,SKC,0.02,VWS V13.01,2013-06-29 05:22:00,
2013-06-29 01:27:00,63.6,59.7,29.63,ENE,68,0.0,0.0,87,0.00,,SKC,0.02,VWS V13.01,2013-06-29 05:27:00,
2013-06-29 01:32:00,63.6,59.7,29.64,ENE,68,0.0,0.0,87,0.00,,SKC,0.02,VWS V13.01,2013-06-29 05:32:00,
2013-06-29 01:37:00,63.6,59.7,29.64,ENE,68,0.0,0.0,87,0.00,,SKC,0.02,VWS V13.01,2013-06-29 05:37:00,
2013-06-29 01:42:00,63.5,59.6,29.64,ENE,68,0.0,0.0,87,0.00,,SKC,0.02,VWS V13.01,2013-06-29 05:42:00,
2013-06-29 01:47:00,63.5,59.6,29.64,ENE,68,0.0,0.0,87,0.00,,SKC,0.02,VWS V13.01,2013-06-29 05:47:00,
2013-06-29 01:52:00,63.3,59.4,29.64,ENE,68,0.0,0.0,87,0.00,,SKC,0.02,VWS V13.01,2013-06-29 05:52:00,
2013-06-29 01:57:00,63.3,59.4,29.63,ENE,68,0.0,0.0,87,0.00,,SKC,0.02,VWS V13.01,2013-06-29 05:57:00,
2013-06-29 02:02:00,63.1,59.2,29.63,ENE,68,0.0,0.0,87,0.00,,SKC,0.02,VWS V13.01,2013-06-29 06:02:00,
2013-06-29 02:07:00,63.1,59.2,29.63,ENE,68,0.0,0.0,87,0.00,,SKC,0.02,VWS V13.01,2013-06-29 06:07:00,
2013-06-29 02:12:00,63.1,59.2,29.63,ENE,68,0.0,0.0,87,0.00,,SKC,0.02,VWS V13.01,2013-06-29 06:12:00,
2013-06-29 02:17:00,62.9,59.3,29.63,ENE,68,0.0,0.0,88,0.00,,SKC,0.02,VWS V13.01,2013-06-29 06:17:00,
2013-06-29 02:22:00,62.7,59.1,29.63,ENE,68,0.0,0.0,88,0.00,,SKC,0.02,VWS V13.01,2013-06-29 06:22:00,
2013-06-29 02:27:00,62.7,59.1,29.63,ENE,68,0.0,0.0,88,0.00,,SKC,0.02,VWS V13.01,2013-06-29 06:27:00,
2013-06-29 02:32:00,62.7,59.1,29.63,ENE,68,0.0,0.0,88,0.00,,SKC,0.02,VWS V13.01,2013-06-29 06:32:00,
2013-06-29 02:37:00,62.6,59.0,29.63,ENE,68,0.0,0.0,88,0.00,,SKC,0.02,VWS V13.01,2013-06-29 06:37:00,
2013-06-29 02:42:00,62.6,59.0,29.64,ENE,68,0.0,0.0,88,0.00,,SKC,0.02,VWS V13.01,2013-06-29 06:42:00,
2013-06-29 02:47:00,62.4,58.8,29.64,ENE,68,0.0,0.0,88,0.00,,SKC,0.02,VWS V13.01,2013-06-29 06:47:00,
2013-06-29 02:52:00,62.4,58.8,29.65,ENE,68,0.0,0.0,88,0.00,,SKC,0.02,VWS V13.01,2013-06-29 06:52:00,
2013-06-29 02:57:00,62.4,58.8,29.65,ENE,68,0.0,0.0,88,0.00,,SKC,0.02,VWS V13.01,2013-06-29 06:57:00,
2013-06-29 03:02:00,62.4,58.8,29.65,ENE,68,0.0,0.0,88,0.00,,SKC,0.02,VWS V13.01,2013-06-29 07:02:00,
2013-06-29 03:07:00,62.4,58.8,29.64,ENE,68,0.0,0.0,88,0.00,,SKC,0.02,VWS V13.01,2013-06-29 07:07:00,
2013-06-29 03:12:00,62.4,58.8,29.65,ENE,68,0.0,0.0,88,0.00,,SKC,0.02,VWS V13.01,2013-06-29 07:12:00,
2013-06-29 03:17:00,62.4,58.8,29.64,ENE,68,0.0,0.0,88,0.00,,SKC,0.02,VWS V13.01,2013-06-29 07:17:00,
2013-06-29 03:22:00,62.4,58.8,29.65,ENE,68,0.0,0.0,88,0.00,,SKC,0.02,VWS V13.01,2013-06-29 07:22:00,
2013-06-29 03:27:00,62.4,58.8,29.65,ENE,68,0.0,0.0,88,0.00,,SKC,0.02,VWS V13.01,2013-06-29 07:27:00,
2013-06-29 03:32:00,62.4,58.8,29.65,ENE,68,0.0,0.0,88,0.00,,SKC,0.02,VWS V13.01,2013-06-29 07:32:00,
2013-06-29 03:37:00,62.4,58.8,29.65,ENE,68,0.0,0.0,88,0.00,,SKC,0.02,VWS V13.01,2013-06-29 07:37:00,
2013-06-29 03:42:00,62.4,58.8,29.65,ENE,68,0.0,0.0,88,0.00,,SKC,0.02,VWS V13.01,2013-06-29 07:42:00,
2013-06-29 03:47:00,62.4,58.8,29.65,ENE,68,0.0,0.0,88,0.00,,SKC,0.02,VWS V13.01,2013-06-29 07:47:00,
2013-06-29 03:52:00,62.4,58.8,29.65,ENE,68,0.0,0.0,88,0.00,,SKC,0.02,VWS V13.01,2013-06-29 07:52:00,
2013-06-29 03:57:00,62.4,58.8,29.65,ENE,68,0.0,0.0,88,0.00,,SKC,0.02,VWS V13.01,2013-06-29 07:57:00,
2013-06-29 04:02:00,62.2,58.6,29.65,ENE,68,0.0,0.0,88,0.00,,SKC,0.02,VWS V13.01,2013-06-29 08:02:00,
2013-06-29 04:07:00,62.0,58.4,29.65,ENE,68,0.0,0.0,88,0.00,,SKC,0.02,VWS V13.01,2013-06-29 08:07:00,
2013-06-29 04:12:00,61.8,58.2,29.65,ENE,68,0.0,0.0,88,0.00,,SKC,0.02,VWS V13.01,2013-06-29 08:12:00,
2013-06-29 04:17:00,61.7,58.1,29.65,ENE,68,0.0,0.0,88,0.00,,SKC,0.02,VWS V13.01,2013-06-29 08:17:00,
2013-06-29 04:22:00,61.5,57.9,29.65,ESE,114,0.0,0.0,88,0.00,,SKC,0.02,VWS V13.01,2013-06-29 08:22:00,
2013-06-29 04:27:00,61.5,57.9,29.65,ESE,114,0.0,0.0,88,0.00,,SKC,0.02,VWS V13.01,2013-06-29 08:27:00,
2013-06-29 04:32:00,61.3,58.0,29.65,ESE,114,0.0,0.0,89,0.00,,SKC,0.02,VWS V13.01,2013-06-29 08:32:00,
2013-06-29 04:37:00,61.1,57.8,29.65,ESE,114,0.0,0.0,89,0.00,,SKC,0.02,VWS V13.01,2013-06-29 08:37:00,
2013-06-29 04:42:00,60.9,57.6,29.65,ESE,114,0.0,0.0,89,0.00,,SKC,0.02,VWS V13.01,2013-06-29 08:42:00,
2013-06-29 04:47:00,60.9,57.6,29.65,ESE,114,0.0,0.0,89,0.00,,SKC,0.02,VWS V13.01,2013-06-29 08:47:00,
2013-06-29 04:52:00,60.9,57.6,29.65,ESE,114,0.0,0.0,89,0.00,,SKC,0.02,VWS V13.01,2013-06-29 08:52:00,
2013-06-29 04:57:00,60.9,57.6,29.65,ESE,114,0.0,0.0,89,0.00,,SKC,0.02,VWS V13.01,2013-06-29 08:57:00,
2013-06-29 05:02:00,60.9,57.6,29.65,ESE,114,0.0,0.0,89,0.00,,SKC,0.02,VWS V13.01,2013-06-29 09:02:00,
2013-06-29 05:07:00,60.9,57.6,29.66,ESE,114,0.0,0.0,89,0.00,,SKC,0.02,VWS V13.01,2013-06-29 09:07:00,
2013-06-29 05:12:00,60.9,57.6,29.66,ESE,114,0.0,0.0,89,0.00,,SKC,0.02,VWS V13.01,2013-06-29 09:12:00,
2013-06-29 05:18:00,60.9,57.6,29.67,ESE,114,0.0,0.0,89,0.00,,SKC,0.02,VWS V13.01,2013-06-29 09:18:00,
2013-06-29 05:23:00,60.9,57.6,29.67,ESE,114,0.0,0.0,89,0.00,,SKC,0.02,VWS V13.01,2013-06-29 09:23:00,
2013-06-29 05:27:00,61.1,57.8,29.67,ESE,114,0.0,0.0,89,0.00,,SKC,0.02,VWS V13.01,2013-06-29 09:27:00,
2013-06-29 05:32:00,61.3,58.0,29.67,ESE,114,0.0,0.0,89,0.00,,SKC,0.02,VWS V13.01,2013-06-29 09:32:00,
2013-06-29 05:37:00,61.3,58.0,29.67,ESE,114,0.0,0.0,89,0.00,,SKC,0.02,VWS V13.01,2013-06-29 09:37:00,
2013-06-29 05:43:00,61.3,58.0,29.67,ESE,114,0.0,0.0,89,0.00,,SKC,0.02,VWS V13.01,2013-06-29 09:43:00,
2013-06-29 05:48:00,61.5,58.2,29.67,ESE,114,0.0,0.0,89,0.00,,SKC,0.02,VWS V13.01,2013-06-29 09:48:00,
2013-06-29 05:53:00,61.7,58.4,29.68,ESE,114,0.0,0.0,89,0.00,,SKC,0.02,VWS V13.01,2013-06-29 09:53:00,
2013-06-29 05:58:00,61.8,58.5,29.67,ESE,114,0.0,0.0,89,0.00,,SKC,0.02,VWS V13.01,2013-06-29 09:58:00,
2013-06-29 06:03:00,62.2,58.9,29.67,ESE,114,0.0,0.0,89,0.00,,SKC,0.02,VWS V13.01,2013-06-29 10:03:00,
2013-06-29 06:08:00,62.4,59.1,29.68,ESE,114,0.0,0.0,89,0.00,,SKC,0.02,VWS V13.01,2013-06-29 10:08:00,
2013-06-29 06:13:00,62.4,59.1,29.68,ESE,114,0.0,0.0,89,0.00,,SKC,0.02,VWS V13.01,2013-06-29 10:13:00,
2013-06-29 06:18:00,62.7,59.4,29.68,ESE,114,0.0,0.0,89,0.00,,SKC,0.02,VWS V13.01,2013-06-29 10:18:00,
2013-06-29 06:23:00,63.1,59.8,29.69,ESE,114,0.0,0.0,89,0.00,,SKC,0.02,VWS V13.01,2013-06-29 10:23:00,
2013-06-29 06:28:00,63.1,59.8,29.69,ESE,114,0.0,0.0,89,0.00,,SKC,0.02,VWS V13.01,2013-06-29 10:28:00,
2013-06-29 06:33:00,63.3,60.0,29.68,ESE,114,0.0,0.0,89,0.00,,SKC,0.02,VWS V13.01,2013-06-29 10:33:00,
2013-06-29 06:38:00,63.3,60.0,29.69,ENE,68,0.0,0.0,89,0.00,,SKC,0.02,VWS V13.01,2013-06-29 10:38:00,
2013-06-29 06:43:00,63.5,60.2,29.69,ENE,68,0.0,0.0,89,0.00,,SKC,0.02,VWS V13.01,2013-06-29 10:43:00,
2013-06-29 06:47:00,63.6,60.3,29.69,ENE,68,0.0,0.0,89,0.00,,SKC,0.02,VWS V13.01,2013-06-29 10:47:00,
2013-06-29 06:53:00,64.0,60.7,29.69,ENE,68,0.0,0.0,89,0.00,,SKC,0.02,VWS V13.01,2013-06-29 10:53:00,
2013-06-29 06:58:00,64.5,61.5,29.69,NE,46,0.0,0.0,90,0.00,,SKC,0.02,VWS V13.01,2013-06-29 10:58:00,
2013-06-29 07:03:00,64.7,61.4,29.69,North,1,0.0,0.0,89,0.00,,SKC,0.02,VWS V13.01,2013-06-29 11:03:00,
2013-06-29 07:08:00,64.7,61.1,29.70,North,1,0.0,0.0,88,0.00,,SKC,0.02,VWS V13.01,2013-06-29 11:08:00,
2013-06-29 07:13:00,64.7,61.4,29.69,North,1,0.0,0.0,89,0.00,,SKC,0.02,VWS V13.01,2013-06-29 11:13:00,
2013-06-29 07:18:00,65.1,61.5,29.69,North,1,0.0,0.0,88,0.00,,SKC,0.02,VWS V13.01,2013-06-29 11:18:00,
2013-06-29 07:23:00,65.1,61.5,29.69,North,1,0.0,0.0,88,0.00,,SKC,0.02,VWS V13.01,2013-06-29 11:23:00,
2013-06-29 07:28:00,65.4,61.8,29.69,NW,316,0.6,0.6,88,0.00,,SKC,0.02,VWS V13.01,2013-06-29 11:28:00,
2013-06-29 07:33:00,66.0,62.0,29.69,NW,316,0.0,0.0,87,0.00,,SKC,0.02,VWS V13.01,2013-06-29 11:33:00,
2013-06-29 07:38:00,66.3,62.3,29.69,NNW,338,0.0,0.0,87,0.00,,SKC,0.02,VWS V13.01,2013-06-29 11:38:00,
2013-06-29 07:43:00,66.3,62.3,29.70,NW,316,0.0,0.0,87,0.00,,SKC,0.02,VWS V13.01,2013-06-29 11:43:00,
2013-06-29 07:48:00,66.7,62.7,29.70,NW,316,0.0,0.0,87,0.00,,SKC,0.02,VWS V13.01,2013-06-29 11:48:00,
2013-06-29 07:53:00,66.7,62.4,29.70,NW,316,0.0,0.0,86,0.00,,SKC,0.02,VWS V13.01,2013-06-29 11:53:00,
2013-06-29 07:58:00,67.1,62.8,29.70,NW,316,0.0,0.0,86,0.00,,SKC,0.00,VWS V13.01,2013-06-29 11:58:00,
2013-06-29 08:03:00,67.2,62.9,29.70,NW,316,0.0,0.0,86,0.00,,SKC,0.00,VWS V13.01,2013-06-29 12:03:00,
2013-06-29 08:08:00,67.4,63.1,29.70,NW,316,0.0,0.0,86,0.00,,SKC,0.00,VWS V13.01,2013-06-29 12:08:00,
2013-06-29 08:13:00,67.8,63.5,29.70,NW,316,0.0,0.0,86,0.00,,SKC,0.00,VWS V13.01,2013-06-29 12:13:00,
2013-06-29 08:18:00,67.8,63.1,29.70,NW,316,0.0,0.0,85,0.00,,SKC,0.00,VWS V13.01,2013-06-29 12:18:00,
2013-06-29 08:23:00,67.6,62.9,29.70,NW,316,0.0,0.0,85,0.00,,SKC,0.00,VWS V13.01,2013-06-29 12:23:00,
2013-06-29 08:28:00,67.6,62.9,29.70,NW,316,0.0,0.0,85,0.00,,SKC,0.00,VWS V13.01,2013-06-29 12:28:00,
2013-06-29 08:33:00,67.6,62.6,29.70,NW,316,0.0,0.0,84,0.00,,SKC,0.00,VWS V13.01,2013-06-29 12:33:00,
2013-06-29 08:38:00,67.4,62.4,29.70,NW,316,0.0,0.0,84,0.00,,SKC,0.00,VWS V13.01,2013-06-29 12:38:00,
2013-06-29 08:43:00,67.6,62.9,29.70,NW,316,0.0,0.0,85,0.00,,SKC,0.00,VWS V13.01,2013-06-29 12:43:00,
2013-06-29 08:48:00,68.1,63.1,29.70,NW,316,0.0,0.0,84,0.00,,SKC,0.00,VWS V13.01,2013-06-29 12:48:00,
2013-06-29 08:53:00,68.5,63.1,29.69,NW,316,0.0,0.0,83,0.00,,SKC,0.00,VWS V13.01,2013-06-29 12:53:00,
2013-06-29 08:58:00,68.5,63.1,29.69,NW,316,0.0,0.0,83,0.00,,SKC,0.00,VWS V13.01,2013-06-29 12:58:00,
2013-06-29 09:03:00,68.7,63.3,29.70,NW,316,0.0,0.0,83,0.00,,SKC,0.00,VWS V13.01,2013-06-29 13:03:00,
2013-06-29 09:08:00,68.7,63.3,29.70,NW,316,0.0,0.0,83,0.00,,SKC,0.00,VWS V13.01,2013-06-29 13:08:00,
2013-06-29 09:13:00,69.2,63.8,29.69,NW,316,0.0,0.0,83,0.00,,SKC,0.00,VWS V13.01,2013-06-29 13:13:00,
2013-06-29 09:18:00,70.1,64.7,29.70,WSW,248,0.0,0.0,83,0.00,,SKC,0.00,VWS V13.01,2013-06-29 13:18:00,
2013-06-29 09:23:00,70.7,65.3,29.69,WSW,248,0.0,0.0,83,0.00,,SKC,0.00,VWS V13.01,2013-06-29 13:23:00,
2013-06-29 09:28:00,70.8,65.0,29.69,WSW,248,0.0,0.0,82,0.00,,SKC,0.00,VWS V13.01,2013-06-29 13:28:00,
2013-06-29 09:33:00,70.8,64.7,29.69,WSW,248,0.0,0.0,81,0.00,,SKC,0.00,VWS V13.01,2013-06-29 13:33:00,
2013-06-29 09:38:00,70.8,64.7,29.69,WSW,248,0.0,0.0,81,0.00,,SKC,0.00,VWS V13.01,2013-06-29 13:38:00,
2013-06-29 09:43:00,71.2,65.1,29.69,WSW,248,0.0,0.0,81,0.00,,SKC,0.00,VWS V13.01,2013-06-29 13:43:00,
2013-06-29 09:48:00,71.4,65.3,29.69,WSW,248,0.0,0.0,81,0.00,,SKC,0.00,VWS V13.01,2013-06-29 13:48:00,
2013-06-29 09:53:00,71.7,65.6,29.69,South,181,0.0,0.0,81,0.00,,SKC,0.00,VWS V13.01,2013-06-29 13:53:00,
2013-06-29 09:58:00,72.5,66.3,29.69,SSW,204,0.0,0.0,81,0.00,,SKC,0.00,VWS V13.01,2013-06-29 13:58:00,
2013-06-29 10:03:00,73.0,66.5,29.69,SSE,158,0.0,0.0,80,0.00,,SKC,0.00,VWS V13.01,2013-06-29 14:03:00,
2013-06-29 10:08:00,73.9,67.0,29.69,WSW,248,0.0,0.0,79,0.00,,SKC,0.00,VWS V13.01,2013-06-29 14:08:00,
2013-06-29 10:12:00,74.1,67.2,29.69,SW,226,0.0,0.0,79,0.00,,SKC,0.00,VWS V13.01,2013-06-29 14:12:00,
2013-06-29 10:13:00,74.1,67.2,29.69,SW,226,0.0,0.0,79,0.00,,SKC,0.00,VWS V13.01,2013-06-29 14:13:00,
2013-06-29 10:18:00,74.1,67.2,29.69,SW,226,0.0,0.0,79,0.00,,SKC,0.00,VWS V13.01,2013-06-29 14:18:00,
2013-06-29 11:12:00,74.1,67.2,29.69,SW,226,0.0,0.0,79,0.00,,SKC,0.00,VWS V13.01,2013-06-29 15:12:00,
2013-06-29 11:17:00,74.1,67.2,29.69,SW,226,0.0,0.0,79,0.00,,SKC,0.00,VWS V13.01,2013-06-29 15:17:00,
2013-06-29 13:42:00,74.1,67.2,29.69,SW,226,0.0,0.0,79,0.00,,SKC,0.00,VWS V13.01,2013-06-29 17:42:00,
2013-06-29 13:47:00,81.6,68.2,29.65,North,1,1.7,1.7,64,0.00,,SKC,0.00,VWS V13.01,2013-06-29 17:47:00,
2013-06-29 13:52:00,82.0,69.1,29.65,WSW,248,0.4,0.4,65,0.00,,SKC,0.00,VWS V13.01,2013-06-29 17:52:00,
2013-06-29 13:57:00,82.4,69.0,29.65,SSE,158,0.0,0.0,64,0.00,,SKC,0.00,VWS V13.01,2013-06-29 17:57:00,
2013-06-29 14:02:00,82.5,68.6,29.65,SE,136,0.4,0.4,63,0.00,,SKC,0.00,VWS V13.01,2013-06-29 18:02:00,
2013-06-29 14:07:00,82.7,68.8,29.65,SE,136,1.5,1.5,63,0.00,,SKC,0.00,VWS V13.01,2013-06-29 18:07:00,
2013-06-29 14:12:00,82.9,69.0,29.65,SSE,158,3.5,3.5,63,0.00,,SKC,0.00,VWS V13.01,2013-06-29 18:12:00,
2013-06-29 14:17:00,82.5,68.2,29.65,South,181,6.2,6.2,62,0.00,,SKC,0.00,VWS V13.01,2013-06-29 18:17:00,
2013-06-29 14:22:00,82.2,67.4,29.65,SSW,204,5.8,5.8,61,0.00,,SKC,0.00,VWS V13.01,2013-06-29 18:22:00,
2013-06-29 14:27:00,82.0,67.2,29.65,South,181,0.0,0.0,61,0.00,,SKC,0.00,VWS V13.01,2013-06-29 18:27:00,
2013-06-29 14:32:00,81.6,67.3,29.65,South,181,2.4,2.4,62,0.00,,SKC,0.00,VWS V13.01,2013-06-29 18:32:00,
2013-06-29 14:37:00,81.6,67.3,29.65,NNE,24,2.0,2.0,62,0.00,,SKC,0.00,VWS V13.01,2013-06-29 18:37:00,
2013-06-29 14:42:00,81.6,67.3,29.65,South,181,2.2,2.2,62,0.00,,SKC,0.00,VWS V13.01,2013-06-29 18:42:00,
2013-06-29 14:47:00,82.2,67.9,29.65,South,181,1.7,1.7,62,0.00,,SKC,0.00,VWS V13.01,2013-06-29 18:47:00,
2013-06-29 14:52:00,82.2,67.4,29.65,SSW,204,0.0,0.0,61,0.00,,SKC,0.00,VWS V13.01,2013-06-29 18:52:00,
2013-06-29 14:57:00,82.0,67.2,29.65,SSW,204,0.0,0.0,61,0.00,,SKC,0.00,VWS V13.01,2013-06-29 18:57:00,
2013-06-29 15:02:00,81.3,67.1,29.65,WSW,248,0.0,0.0,62,0.00,,SKC,0.00,VWS V13.01,2013-06-29 19:02:00,
2013-06-29 15:07:00,80.9,66.7,29.66,NNE,24,0.4,0.4,62,0.00,,SKC,0.00,VWS V13.01,2013-06-29 19:07:00,
2013-06-29 15:12:00,80.4,66.2,29.65,North,1,0.0,0.0,62,0.00,,SKC,0.00,VWS V13.01,2013-06-29 19:12:00,
2013-06-29 15:17:00,80.0,66.7,29.66,NNE,24,0.4,0.4,64,0.00,,SKC,0.00,VWS V13.01,2013-06-29 19:17:00,
2013-06-29 15:22:00,79.7,67.3,29.66,North,1,0.6,0.6,66,0.00,,SKC,0.00,VWS V13.01,2013-06-29 19:22:00,
2013-06-29 15:27:00,79.8,67.9,29.67,NNE,24,0.0,0.0,67,0.00,,SKC,0.00,VWS V13.01,2013-06-29 19:27:00,
2013-06-29 15:32:00,80.4,69.3,29.67,West,271,0.0,0.0,69,0.00,,SKC,0.00,VWS V13.01,2013-06-29 19:32:00,
2013-06-29 15:37:00,81.1,69.6,29.67,NNW,338,0.0,0.0,68,0.00,,SKC,0.00,VWS V13.01,2013-06-29 19:37:00,
2013-06-29 15:42:00,81.5,69.9,29.68,SSE,158,3.1,3.1,68,0.00,,SKC,0.00,VWS V13.01,2013-06-29 19:42:00,
2013-06-29 15:47:00,81.6,69.2,29.68,SSE,158,3.3,3.3,66,0.00,,SKC,0.00,VWS V13.01,2013-06-29 19:47:00,
2013-06-29 15:52:00,81.5,69.1,29.68,South,181,2.2,2.2,66,0.00,,SKC,0.00,VWS V13.01,2013-06-29 19:52:00,
2013-06-29 15:57:00,81.5,69.1,29.68,ESE,114,0.0,0.0,66,0.00,,SKC,0.00,VWS V13.01,2013-06-29 19:57:00,
2013-06-29 16:02:00,81.6,69.2,29.68,SSE,158,0.0,0.0,66,0.00,,SKC,0.00,VWS V13.01,2013-06-29 20:02:00,
2013-06-29 16:07:00,81.5,69.1,29.68,SE,136,0.0,0.0,66,0.00,,SKC,0.00,VWS V13.01,2013-06-29 20:07:00,
2013-06-29 16:12:00,81.3,68.9,29.68,South,181,0.0,0.0,66,0.00,,SKC,0.00,VWS V13.01,2013-06-29 20:12:00,
2013-06-29 16:17:00,81.3,68.9,29.68,NNE,24,0.0,0.0,66,0.00,,SKC,0.00,VWS V13.01,2013-06-29 20:17:00,
2013-06-29 16:22:00,81.6,69.2,29.68,East,91,0.0,0.0,66,0.00,,SKC,0.00,VWS V13.01,2013-06-29 20:22:00,
2013-06-29 16:28:00,81.8,68.4,29.68,NNW,338,0.6,0.6,64,0.00,,SKC,0.00,VWS V13.01,2013-06-29 20:28:00,
2013-06-29 16:33:00,81.6,68.2,29.69,ESE,114,0.0,0.0,64,0.00,,SKC,0.00,VWS V13.01,2013-06-29 20:33:00,
2013-06-29 16:38:00,81.6,68.2,29.69,East,91,0.6,0.6,64,0.00,,SKC,0.00,VWS V13.01,2013-06-29 20:38:00,
2013-06-29 16:43:00,81.6,68.2,29.69,NE,46,0.6,0.6,64,0.00,,SKC,0.00,VWS V13.01,2013-06-29 20:43:00,
2013-06-29 16:48:00,82.0,68.6,29.69,SW,226,0.0,0.0,64,0.00,,SKC,0.00,VWS V13.01,2013-06-29 20:48:00,
2013-06-29 16:53:00,82.2,68.8,29.69,SSE,158,0.0,0.0,64,0.00,,SKC,0.00,VWS V13.01,2013-06-29 20:53:00,
2013-06-29 16:58:00,82.2,68.8,29.69,South,181,0.0,0.0,64,0.00,,SKC,0.00,VWS V13.01,2013-06-29 20:58:00,
2013-06-29 17:03:00,82.2,68.4,29.69,WSW,248,0.0,0.0,63,0.00,,SKC,0.00,VWS V13.01,2013-06-29 21:03:00,
2013-06-29 17:08:00,82.2,68.4,29.69,WSW,248,0.0,0.0,63,0.00,,SKC,0.00,VWS V13.01,2013-06-29 21:08:00,
2013-06-29 17:13:00,82.0,68.2,29.69,WNW,294,0.0,0.0,63,0.00,,SKC,0.00,VWS V13.01,2013-06-29 21:13:00,
2013-06-29 17:18:00,81.3,68.0,29.68,SSE,158,0.6,0.6,64,0.00,,SKC,0.00,VWS V13.01,2013-06-29 21:18:00,
2013-06-29 17:23:00,81.3,68.4,29.69,NW,316,0.0,0.0,65,0.00,,SKC,0.00,VWS V13.01,2013-06-29 21:23:00,
2013-06-29 17:28:00,81.3,68.0,29.69,WSW,248,0.0,0.0,64,0.00,,SKC,0.00,VWS V13.01,2013-06-29 21:28:00,
2013-06-29 17:33:00,81.1,67.8,29.70,South,181,1.5,1.5,64,0.00,,SKC,0.00,VWS V13.01,2013-06-29 21:33:00,
2013-06-29 17:38:00,80.9,67.6,29.70,SSE,158,0.0,3.1,64,0.00,,SKC,0.00,VWS V13.01,2013-06-29 21:38:00,
2013-06-29 17:43:00,80.6,67.8,29.70,South,181,0.0,0.0,65,0.00,,SKC,0.00,VWS V13.01,2013-06-29 21:43:00,
2013-06-29 17:48:00,80.2,67.4,29.70,South,181,1.1,1.1,65,0.00,,SKC,0.00,VWS V13.01,2013-06-29 21:48:00,
2013-06-29 17:53:00,80.2,67.8,29.70,SW,226,0.0,0.0,66,0.00,,SKC,0.00,VWS V13.01,2013-06-29 21:53:00,
2013-06-29 17:58:00,80.2,67.8,29.70,SW,226,0.0,0.0,66,0.00,,SKC,0.00,VWS V13.01,2013-06-29 21:58:00,
2013-06-29 18:03:00,79.7,67.3,29.70,NW,316,1.3,1.3,66,0.00,,SKC,0.00,VWS V13.01,2013-06-29 22:03:00,
2013-06-29 18:08:00,78.0,66.2,29.70,North,1,0.0,0.0,67,0.00,,SKC,0.00,VWS V13.01,2013-06-29 22:08:00,
2013-06-29 18:13:00,77.3,65.9,29.70,North,1,0.0,0.0,68,0.00,,SKC,0.00,VWS V13.01,2013-06-29 22:13:00,
2013-06-29 18:18:00,77.1,66.2,29.71,WNW,294,0.0,0.0,69,0.00,,SKC,0.00,VWS V13.01,2013-06-29 22:18:00,
2013-06-29 18:23:00,76.2,65.7,29.71,West,271,0.0,0.0,70,0.00,,SKC,0.00,VWS V13.01,2013-06-29 22:23:00,
2013-06-29 18:28:00,75.7,65.2,29.71,NNE,24,0.6,0.6,70,0.00,,SKC,0.00,VWS V13.01,2013-06-29 22:28:00,
2013-06-29 18:33:00,74.8,64.8,29.71,NW,316,0.0,0.0,71,0.00,,SKC,0.00,VWS V13.01,2013-06-29 22:33:00,
2013-06-29 18:38:00,73.9,64.7,29.72,North,1,0.0,0.0,73,0.00,,SKC,0.00,VWS V13.01,2013-06-29 22:38:00,
2013-06-29 18:43:00,73.4,64.6,29.72,NW,316,0.0,0.0,74,0.00,,SKC,0.00,VWS V13.01,2013-06-29 22:43:00,
2013-06-29 18:48:00,73.0,64.6,29.72,NW,316,0.0,0.0,75,0.00,,SKC,0.00,VWS V13.01,2013-06-29 22:48:00,
2013-06-29 18:53:00,72.5,64.1,29.72,North,1,0.0,0.0,75,0.00,,SKC,0.00,VWS V13.01,2013-06-29 22:53:00,
2013-06-29 18:58:00,72.3,64.3,29.72,NNE,24,0.4,0.4,76,0.00,,SKC,0.00,VWS V13.01,2013-06-29 22:58:00,
2013-06-29 19:03:00,72.1,64.1,29.73,NNW,338,0.0,0.0,76,0.00,,SKC,0.00,VWS V13.01,2013-06-29 23:03:00,
2013-06-29 19:08:00,71.7,64.1,29.73,NNW,338,0.0,0.0,77,0.00,,SKC,0.00,VWS V13.01,2013-06-29 23:08:00,
2013-06-29 19:09:00,71.7,64.1,29.73,NNW,338,0.0,0.0,77,0.00,,SKC,0.00,VWS V13.01,2013-06-29 23:09:00,
2013-06-29 19:14:00,71.7,64.1,29.73,North,1,0.0,0.4,77,0.00,,SKC,0.00,VWS V13.01,2013-06-29 23:14:00,
2013-06-29 19:19:00,71.4,64.2,29.74,NNW,338,0.4,0.4,78,0.00,,SKC,0.00,VWS V13.01,2013-06-29 23:19:00,
2013-06-29 19:24:00,71.2,64.0,29.74,NW,316,0.6,0.6,78,0.00,,SKC,0.00,VWS V13.01,2013-06-29 23:24:00,
2013-06-29 19:29:00,70.8,63.6,29.74,NE,46,0.4,0.4,78,0.00,,SKC,0.00,VWS V13.01,2013-06-29 23:29:00,
2013-06-29 19:34:00,70.7,63.5,29.74,NE,46,0.4,0.4,78,0.00,,SKC,0.00,VWS V13.01,2013-06-29 23:34:00,
2013-06-29 19:39:00,70.5,63.3,29.74,NNW,338,0.0,0.0,78,0.00,,SKC,0.00,VWS V13.01,2013-06-29 23:39:00,
2013-06-29 19:44:00,70.5,63.3,29.75,NW,316,0.0,0.0,78,0.00,,SKC,0.00,VWS V13.01,2013-06-29 23:44:00,
2013-06-29 19:49:00,70.5,63.3,29.75,SW,226,0.0,0.0,78,0.00,,SKC,0.00,VWS V13.01,2013-06-29 23:49:00,
2013-06-29 19:54:00,70.5,63.3,29.75,NNW,338,3.5,3.5,78,0.00,,SKC,0.00,VWS V13.01,2013-06-29 23:54:00,
2013-06-29 19:59:00,70.3,63.5,29.75,North,1,0.0,0.0,79,0.00,,SKC,0.00,VWS V13.01,2013-06-29 23:59:00,
2013-06-29 20:04:00,69.9,63.1,29.75,NW,316,0.0,0.0,79,0.00,,SKC,0.00,VWS V13.01,2013-06-30 00:04:00,
2013-06-29 20:09:00,69.8,63.0,29.76,NW,316,0.6,0.6,79,0.00,,SKC,0.00,VWS V13.01,2013-06-30 00:09:00,
2013-06-29 20:14:00,69.6,63.2,29.75,NNW,338,0.0,0.0,80,0.00,,SKC,0.00,VWS V13.01,2013-06-30 00:14:00,
2013-06-29 20:19:00,69.4,63.0,29.77,NNW,338,0.0,0.0,80,0.00,,SKC,0.00,VWS V13.01,2013-06-30 00:19:00,
2013-06-29 20:24:00,69.4,63.3,29.76,NE,46,0.0,0.0,81,0.00,,SKC,0.00,VWS V13.01,2013-06-30 00:24:00,
2013-06-29 20:29:00,69.0,62.9,29.77,NW,316,0.0,0.0,81,0.00,,SKC,0.00,VWS V13.01,2013-06-30 00:29:00,
2013-06-29 20:34:00,69.0,63.3,29.77,NW,316,0.0,0.0,82,0.00,,SKC,0.00,VWS V13.01,2013-06-30 00:34:00,
2013-06-29 20:39:00,68.9,63.2,29.78,NW,316,0.0,0.0,82,0.00,,SKC,0.00,VWS V13.01,2013-06-30 00:39:00,
2013-06-29 20:44:00,68.9,63.2,29.77,NW,316,0.0,0.0,82,0.00,,SKC,0.00,VWS V13.01,2013-06-30 00:44:00,
2013-06-29 20:49:00,68.7,63.0,29.78,NW,316,0.0,0.0,82,0.00,,SKC,0.00,VWS V13.01,2013-06-30 00:49:00,
2013-06-29 20:54:00,68.7,63.0,29.78,NW,316,0.0,0.0,82,0.00,,SKC,0.00,VWS V13.01,2013-06-30 00:54:00,
2013-06-29 20:59:00,68.3,62.6,29.77,NW,316,0.0,0.0,82,0.00,,SKC,0.00,VWS V13.01,2013-06-30 00:59:00,
2013-06-29 21:04:00,68.1,62.4,29.78,NW,316,0.0,0.0,82,0.00,,SKC,0.00,VWS V13.01,2013-06-30 01:04:00,
2013-06-29 21:09:00,68.1,62.8,29.78,NW,316,0.0,0.0,83,0.00,,SKC,0.00,VWS V13.01,2013-06-30 01:09:00,
2013-06-29 21:14:00,67.8,62.5,29.78,NW,316,0.0,0.0,83,0.00,,SKC,0.00,VWS V13.01,2013-06-30 01:14:00,
2013-06-29 21:19:00,67.8,62.5,29.78,NW,316,0.0,0.0,83,0.00,,SKC,0.00,VWS V13.01,2013-06-30 01:19:00,
2013-06-29 21:24:00,67.6,62.3,29.79,NW,316,0.0,0.0,83,0.00,,SKC,0.00,VWS V13.01,2013-06-30 01:24:00,
2013-06-29 21:29:00,67.4,62.1,29.78,NW,316,0.0,0.0,83,0.00,,SKC,0.00,VWS V13.01,2013-06-30 01:29:00,
2013-06-29 21:34:00,67.2,62.2,29.79,NW,316,0.0,0.0,84,0.00,,SKC,0.00,VWS V13.01,2013-06-30 01:34:00,
2013-06-29 21:39:00,67.2,62.2,29.79,NW,316,0.0,0.0,84,0.00,,SKC,0.00,VWS V13.01,2013-06-30 01:39:00,
2013-06-29 21:44:00,67.2,62.2,29.79,NW,316,0.0,0.0,84,0.00,,SKC,0.00,VWS V13.01,2013-06-30 01:44:00,
2013-06-29 21:49:00,67.2,62.5,29.79,NW,316,0.0,0.0,85,0.00,,SKC,0.00,VWS V13.01,2013-06-30 01:49:00,
2013-06-29 21:54:00,67.2,62.5,29.79,SE,136,0.0,0.0,85,0.00,,SKC,0.00,VWS V13.01,2013-06-30 01:54:00,
2013-06-29 21:59:00,67.4,62.7,29.80,SE,136,0.0,0.0,85,0.00,,SKC,0.00,VWS V13.01,2013-06-30 01:59:00,
2013-06-29 22:04:00,67.6,62.9,29.80,SE,136,0.0,0.0,85,0.00,,SKC,0.00,VWS V13.01,2013-06-30 02:04:00,
2013-06-29 22:09:00,67.6,62.9,29.80,SE,136,0.0,0.0,85,0.00,,SKC,0.00,VWS V13.01,2013-06-30 02:09:00,
2013-06-29 22:14:00,67.6,62.9,29.80,SE,136,0.0,0.0,85,0.00,,SKC,0.00,VWS V13.01,2013-06-30 02:14:00,
2013-06-29 22:19:00,67.6,62.9,29.80,SE,136,0.0,0.0,85,0.00,,SKC,0.00,VWS V13.01,2013-06-30 02:19:00,
2013-06-29 22:24:00,67.4,62.7,29.80,SE,136,0.0,0.0,85,0.00,,SKC,0.00,VWS V13.01,2013-06-30 02:24:00,
2013-06-29 22:29:00,67.2,62.5,29.80,SE,136,0.0,0.0,85,0.00,,SKC,0.00,VWS V13.01,2013-06-30 02:29:00,
2013-06-29 22:34:00,67.2,62.5,29.80,SE,136,0.0,0.0,85,0.00,,SKC,0.00,VWS V13.01,2013-06-30 02:34:00,
2013-06-29 22:39:00,67.1,62.5,29.80,SE,136,0.0,0.0,85,0.00,,SKC,0.00,VWS V13.01,2013-06-30 02:39:00,
2013-06-29 22:44:00,67.1,62.5,29.81,SE,136,0.0,0.0,85,0.00,,SKC,0.00,VWS V13.01,2013-06-30 02:44:00,
2013-06-29 22:49:00,67.1,62.5,29.80,SE,136,0.0,0.0,85,0.00,,SKC,0.00,VWS V13.01,2013-06-30 02:49:00,
2013-06-29 22:54:00,67.1,62.5,29.80,SE,136,0.0,0.0,85,0.00,,SKC,0.00,VWS V13.01,2013-06-30 02:54:00,
2013-06-29 22:59:00,67.1,62.5,29.80,SE,136,0.0,0.0,85,0.00,,SKC,0.00,VWS V13.01,2013-06-30 02:59:00,
2013-06-29 23:04:00,66.9,62.6,29.81,SE,136,0.0,0.0,86,0.00,,SKC,0.00,VWS V13.01,2013-06-30 03:04:00,
2013-06-29 23:09:00,66.9,62.6,29.80,SE,136,0.0,0.0,86,0.00,,SKC,0.00,VWS V13.01,2013-06-30 03:09:00,
2013-06-29 23:14:00,66.9,62.6,29.80,SE,136,0.0,0.0,86,0.00,,SKC,0.00,VWS V13.01,2013-06-30 03:14:00,
2013-06-29 23:19:00,66.7,62.4,29.80,SE,136,0.0,0.0,86,0.00,,SKC,0.00,VWS V13.01,2013-06-30 03:19:00,
2013-06-29 23:24:00,66.7,62.4,29.80,SE,136,0.0,0.0,86,0.00,,SKC,0.00,VWS V13.01,2013-06-30 03:24:00,
2013-06-29 23:29:00,66.5,62.2,29.80,SE,136,0.0,0.0,86,0.00,,SKC,0.00,VWS V13.01,2013-06-30 03:29:00,
2013-06-29 23:34:00,66.3,62.0,29.80,SE,136,0.0,0.0,86,0.00,,SKC,0.00,VWS V13.01,2013-06-30 03:34:00,
2013-06-29 23:39:00,66.3,62.0,29.80,SE,136,0.0,0.0,86,0.00,,SKC,0.00,VWS V13.01,2013-06-30 03:39:00,
2013-06-29 23:44:00,66.2,61.9,29.81,SE,136,0.0,0.0,86,0.00,,SKC,0.00,VWS V13.01,2013-06-30 03:44:00,
2013-06-29 23:49:00,66.2,61.9,29.81,SE,136,0.0,0.0,86,0.00,,SKC,0.00,VWS V13.01,2013-06-30 03:49:00,
2013-06-29 23:54:00,66.0,61.7,29.81,SE,136,0.0,0.0,86,0.00,,SKC,0.00,VWS V13.01,2013-06-30 03:54:00,
2013-06-29 23:59:00,66.0,61.7,29.81,SE,136,0.0,0.0,86,0.00,,SKC,0.00,VWS V13.01,2013-06-30 03:59:00,